Location: Borojevi?i
(45.0486°N, 16.2297°E)
Time: 01:24:33
(UTC+00:00)

Resurs 1-4 Rocket - Pass Details

Date: 08 August 2020
Orbit: 799 x 815 km, 98.6° (Epoch: 25 September)

Event Time Altitude Azimuth Distance (km) Brightness Sun altitude
Rises 23:02:00 0° 33° (NNE) 3,328 6.1 -29.2°
Reaches altitude 10° 23:05:48 10° 61° (ENE) 2,387 4.9 -29.2°
Maximum altitude 23:08:08 13° 88° (E) 2,181 4.4 -29.1°
Enters shadow 23:08:20 13° 90° (E) 2,182 4.3 -29.1°
